This demonstration page uses our WeatherBlox Daily Observations layout. Learn more.

Left ArrowRight Arrow

Hourly Observations for March 13, 2021

Temp ( °F °C ) Dew Point ( °F °C ) Humidity (%) Winds ( mph kmh ) Pressure ( in mb ) Visibility ( mi km ) Precip ( " mm )
12:15 am 00:15 Cloudy 42 5.3 29 -1.5 62 62 E 15 24 30.36 1028 10 16 N/A
12:35 am 00:35 Cloudy 41 5.1 29 -1.5 63 63 E 13 20 30.34 1027 10 16 N/A
12:55 am 00:55 Cloudy 41 5.2 29 -1.6 62 62 E 13 20 30.35 1028 10 16 N/A
1:15 am 01:15 Cloudy 41 5.2 29 -1.6 62 62 E 13 20 30.35 1028 10 16 N/A
1:35 am 01:35 Cloudy 41 5.1 29 -1.8 61 61 E 10 17 30.35 1028 10 16 N/A
1:55 am 01:55 Cloudy 41 5.1 29 -1.5 63 63 E 13 20 30.35 1028 10 16 N/A
2:15 am 02:15 Cloudy 41 5.1 29 -1.9 61 61 E 15 24 30.35 1028 10 16 N/A
2:35 am 02:35 Cloudy 41 5 29 -1.4 64 64 E 18 30 30.35 1028 10 16 N/A
2:55 am 02:55 Cloudy 41 4.9 30 -1 66 66 E 17 28 30.35 1028 10 16 N/A
3:15 am 03:15 Cloudy 41 4.8 31 -0.5 69 69 E 20 31 30.34 1027 10 16 N/A
3:35 am 03:35 Cloudy 40 4.7 31 -0.4 70 70 E 14 22 30.33 1027 10 16 N/A
3:55 am 03:55 Cloudy 40 4.6 32 -0.1 72 72 E 15 24 30.33 1027 10 16 N/A
4:15 am 04:15 Cloudy 40 4.5 32 undefined 73 73 E 15 24 30.32 1027 10 16 N/A
4:35 am 04:35 Cloudy 39 4.1 32 undefined 75 75 ESE 15 24 30.34 1027 10 16 N/A
4:55 am 04:55 Cloudy 39 3.9 33 0.5 79 79 E 14 22 30.32 1027 10 16 N/A
5:15 am 05:15 Cloudy 39 4 33 0.5 78 78 E 10 17 30.33 1027 10 16 N/A
5:35 am 05:35 Cloudy 40 4.2 32 0.2 75 75 E 14 22 30.30 1026 10 16 N/A
5:55 am 05:55 Cloudy 40 4.5 32 0.1 73 73 E 13 20 30.30 1026 10 16 N/A
6:15 am 06:15 Cloudy with Rain 39 4 34 0.9 80 80 E 10 17 30.32 1027 10 16 N/A
6:30 am 06:30 Cloudy with Light Rain 39 3.8 34 1.1 83 83 E 13 20 30.31 1026 10 16 0.01 0.25
6:55 am 06:55 Cloudy 39 4 35 1.5 84 84 E 14 22 30.31 1026 10 16 0.01 0.25
7:15 am 07:15 Cloudy with Light Rain 39 4 34 1.3 83 83 E 7 11 30.32 1027 10 16 N/A
7:35 am 07:35 Cloudy with Light Rain 39 3.9 35 1.7 86 86 E 10 17 30.33 1027 10 16 N/A
7:55 am 07:55 Cloudy with Light Rain 39 3.7 36 2.1 89 89 E 13 20 30.33 1027 10 16 0.01 0.25
8:15 am 08:15 Cloudy with Rain 38 3.6 36 2.3 91 91 E 10 17 30.33 1027 4 6 0.03 0.76
8:35 am 08:35 Cloudy with Light Rain 38 3.6 37 2.5 93 93 E 14 22 30.31 1026 5 8 0.04 1.02
8:55 am 08:55 Cloudy with Light Rain 38 3.4 36 2.3 93 93 E 13 20 30.31 1027 7 11 0.06 1.52
9:15 am 09:15 Cloudy with Light Rain 38 3.4 36 2.4 93 93 ENE 15 24 30.30 1026 5 8 0.02 0.51
9:35 am 09:35 Cloudy with Light Rain 38 3.5 37 2.5 93 93 E 10 17 30.31 1026 5 8 0.04 1.02
9:55 am 09:55 Cloudy with Light Rain 38 3.5 37 2.6 94 94 E 14 22 30.29 1026 7 11 0.05 1.27
10:15 am 10:15 Cloudy 38 3.6 37 2.7 94 94 E 14 22 30.28 1025 10 16 N/A
10:35 am 10:35 Cloudy 39 3.7 37 2.9 95 95 E 16 26 30.27 1025 10 16 N/A
10:55 am 10:55 Cloudy with Drizzle 39 3.9 37 3 94 94 E 18 30 30.27 1025 5 8 N/A
11:15 am 11:15 Cloudy with Mist and Fog 39 4 38 3.2 95 95 E 12 19 30.27 1025 5 8 N/A
11:35 am 11:35 Cloudy with Mist and Fog 39 4 38 3.2 95 95 E 14 22 30.27 1025 5 8 N/A
11:55 am 11:55 Cloudy with Drizzle 39 4.1 38 3.5 96 96 E 16 26 30.26 1025 3 5 N/A
12:15 pm 12:15 Cloudy with Light Rain 40 4.2 38 3.5 95 95 E 14 22 30.25 1024 4 6 N/A
12:35 pm 12:35 Cloudy with Light Rain 40 4.5 39 3.7 95 95 E 17 28 30.24 1024 3 5 N/A
12:55 pm 12:55 Cloudy with Light Rain 40 4.5 39 3.8 95 95 E 17 28 30.22 1023 5 8 0.01 0.25
1:15 pm 13:15 Cloudy with Light Rain 40 4.6 39 4 96 96 E 15 24 30.22 1023 2 2 0.02 0.51
1:35 pm 13:35 Cloudy with Light Rain 41 4.8 40 4.2 96 96 E 14 22 30.21 1023 3 4 0.07 1.78
1:55 pm 13:55 Cloudy with Rain 41 4.8 40 4.2 96 96 ESE 10 17 30.22 1023 2 3 0.17 4.32
2:15 pm 14:15 Cloudy with Rain 41 5 40 4.3 95 95 ESE 8 13 30.21 1023 3 5 0.04 1.02
2:35 pm 14:35 Cloudy with Rain 41 5 40 4.5 97 97 E 12 19 30.18 1022 4 6 0.08 2.03
2:55 pm 14:55 Cloudy with Rain 41 5 40 4.5 97 97 E 12 19 30.18 1022 3 5 0.14 3.56
3:15 pm 15:15 Cloudy with Rain 41 5 40 4.5 97 97 ENE 14 22 30.17 1022 3 5 0.06 1.52
3:35 pm 15:35 Cloudy with Rain 41 4.8 40 4.2 96 96 ENE 18 30 30.13 1020 3 5 0.14 3.56
3:55 pm 15:55 Cloudy with Nearby Thunderstorms 41 4.8 40 4.2 96 96 NE 15 24 30.14 1021 5 8 0.19 4.83
4:15 pm 16:15 Cloudy with Heavy Rain 41 4.8 40 4.2 96 96 NE 14 22 30.14 1021 5 8 0.05 1.27
4:35 pm 16:35 Cloudy with Nearby Thunderstorms 41 5 40 4.3 95 95 NE 14 22 30.14 1021 4 6 0.16 4.06
4:55 pm 16:55 Cloudy with Strong Thunderstorms 41 5 40 4.5 97 97 ENE 10 17 30.16 1021 3 5 0.27 6.86
5:15 pm 17:15 Windy with Storms Likely 41 4.9 40 4.3 96 96 ENE 24 39 30.12 1020 4 6 0.11 2.79
5:35 pm 17:35 Windy with Storms Likely 41 4.8 40 4.3 97 97 NE 26 43 30.10 1019 5 8 0.19 4.83
5:55 pm 17:55 Cloudy with Thunderstorms 41 4.8 40 4.3 97 97 NNE 18 30 30.12 1020 3 5 0.32 8.13
6:15 pm 18:15 Cloudy with Thunderstorms 41 4.8 40 4.3 97 97 NE 24 39 30.10 1019 2 3 0.11 2.79
6:35 pm 18:35 Cloudy with Heavy Rain 40 4.7 40 4.2 97 97 NNE 23 37 30.11 1020 3 5 0.27 6.86
6:55 pm 18:55 Cloudy with Rain 41 4.9 40 4.4 97 97 ENE 30 48 30.09 1019 4 6 0.35 8.89
7:15 pm 19:15 Cloudy with Rain 41 5.1 40 4.6 97 97 ENE 28 44 30.07 1018 5 8 0.01 0.25
7:35 pm 19:35 Cloudy with Thunderstorms 42 5.5 41 5 97 97 ENE 29 46 30.05 1018 4 6 0.02 0.51
7:55 pm 19:55 Cloudy with Light Rain 42 5.3 41 4.8 97 97 ENE 26 43 30.06 1018 5 8 0.07 1.78
8:15 pm 20:15 Cloudy with Rain 42 5.3 41 4.8 97 97 ENE 23 37 30.08 1018 3 5 0.06 1.52
8:35 pm 20:35 Cloudy with Nearby Thunderstorms 42 5.5 41 5 97 97 ENE 15 24 30.08 1019 5 8 0.15 3.81
8:55 pm 20:55 Cloudy with Rain 42 5.7 41 5.2 97 97 NW 10 17 30.12 1020 7 11 0.20 5.08
9:15 pm 21:15 Cloudy with Light Rain 42 5.7 41 5.2 97 97 N 13 20 30.10 1019 10 16 0.02 0.51
9:35 pm 21:35 Cloudy 42 5.8 42 5.3 97 97 NE 16 26 30.10 1019 10 16 0.02 0.51
9:55 pm 21:55 Cloudy 43 6.1 42 5.6 97 97 NE 16 26 30.09 1019 10 16 0.02 0.51
10:15 pm 22:15 Cloudy with Nearby Thunderstorms 43 6.2 42 5.6 96 96 ENE 23 37 30.08 1019 10 16 N/A
10:35 pm 22:35 Cloudy with Nearby Thunderstorms 43 6.2 42 5.5 95 95 ENE 20 31 30.08 1019 10 16 N/A
10:55 pm 22:55 Cloudy with Light Rain 43 6.2 42 5.5 95 95 ENE 18 30 30.08 1019 10 16 N/A
11:15 pm 23:15 Cloudy with Rain 43 6.2 42 5.6 96 96 ENE 20 31 30.09 1019 5 8 0.05 1.27
11:35 pm 23:35 Cloudy with Heavy Rain 43 6.2 42 5.5 95 95 ENE 18 30 30.09 1019 4 6 0.18 4.57
11:55 pm 23:55 Cloudy with Rain 43 6.1 42 5.5 96 96 ENE 22 35 30.06 1018 4 6 0.34 8.64

Powered by AerisWeather